Location: Bremen
(53.0793°N, 8.8017°E)
Time: 19:12:38
(UTC+01:00)

Vanguard 1 Rocket - Pass Details

Date: 08 December 2021
Orbit: 651 x 4224 km, 34.3° (Epoch: 24 January)

Event Time Altitude Azimuth Distance (km) Brightness Sun altitude
Rises 07:12:35 0° 266° (W) 5,862 - -10.1°
Exits shadow 07:13:35 - 264° (W) 5,717 10.9 -10.0°
Reaches altitude 10° 07:16:45 10° 255° (WSW) 5,335 10.9 -9.5°
Maximum altitude 07:29:49 27° 206° (SSW) 5,191 11.3 -7.8°
Drops below altitude 10° 07:47:54 10° 160° (SSE) 7,378 12.9 -5.4°
Sets 07:55:23 0° 150° (SSE) 8,454 13.6 -4.5°
